User: anonymous   Login
Location: Melbourne
(37.8170°S, 144.9670°E)
Time: 08:26:22
(UTC+10:00)
Language:

ERBS - Orbit

View from above orbital plane
View from above orbital plane
View from above satellite
View from above satellite

Ground track
Ground track

The orbit data is extracted from the following two-line orbital elements,

1 15354U 84108B   18200.54374275 +.00001420 +00000-0 +36822-4 0  9999
2 15354 057.0056 224.1611 0014257 126.1691 234.0686 15.46136443859340
Epoch (UTC): 19 July 2018 13:02:59
Eccentricity: 0.0014257
inclination: 57.0056°
perigee height: 418 km
apogee height: 438 km
right ascension of ascending node: 224.1611°
argument of perigee: 126.1691°
revolutions per day: 15.46136443
mean anomaly at epoch: 234.0686°
orbit number at epoch: 85934

The dashed part of the orbit path shows where the satellite is in the earth's shadow,  

DLR